Augusta Bush, GA

10:55 AM EDT on September 21, 2017 (GMT -0400)
Augusta Regional At Bush

Weather History for KAGS - April, 2014

Change the Weather History Date:

Thursday, April 17, 2014

  Actual Average Record
Temperature  
Mean Temperature 53 °F 63 °F  
Max Temperature 70 °F 78 °F 93 °F (1896)
Min Temperature 36 °F 48 °F 33 °F (1953)
Degree Days  
Heating Degree Days 12 4  
Month to date heating degree days 72 87  
Since 1 July heating degree days 2634 2415  
Cooling Degree Days 0 2  
Month to date cooling degree days 18 22  
Year to date cooling degree days 20 40  
Growing Degree Days 3 (Base 50)    
Moisture  
Dew Point 35 °F    
Average Humidity 56    
Maximum Humidity 85    
Minimum Humidity 26    
Precipitation  
Precipitation 0.00 in 0.09 in 2.14 in (1874)
Month to date precipitation 1.95 1.72  
Year to date precipitation 10.72 13.73  
Sea Level Pressure  
Sea Level Pressure 30.39 in    
Wind  
Wind Speed 6 mph (ENE)    
Max Wind Speed 15 mph    
Max Gust Speed 21 mph    
Visibility 10 miles    
Events      
T = Trace of Precipitation, MM = Missing Value Source: NWS Daily Summary

Daily Weather History Graph

Daily Weather History Graph

Search for Another Location

Airport or City:

Trip Planner

Search our weather history database for the weather conditions in past years. The results will help you decide how hot, cold, wet, or windy it might be!

Date:

Astronomy

Apr. 17, 2014 Rise Set
Actual Time 6:55 AM EDT 8:00 PM EDT
Civil Twilight 6:29 AM EDT 8:25 PM EDT
Nautical Twilight 5:59 AM EDT 8:56 PM EDT
Astronomical Twilight 5:27 AM EDT 9:27 PM EDT
Moon 10:38 PM EDT (4/17) 8:31 AM EDT (4/17)
Length of Visible Light 13h 56m
Length of Day
13h 04m
Waning Gibbous, 94% of the Moon is Illuminated
Apr 17
Waning Gibbous
Apr 22
Last Quarter
Apr 29
New
May 6
First Quarter
May 14
Full

Hourly Weather History & Observations

Time (EDT) Temp. Windchill Dew Point Humidity Pressure Visibility Wind Dir Wind Speed Gust Speed Precip Events Conditions
12:53 AM 44.1 °F 42.5 °F 33.1 °F 65% 30.39 in 10.0 mi East 3.5 mph - N/A   Clear
1:53 AM 39.9 °F - 34.0 °F 79% 30.40 in 10.0 mi Calm Calm - N/A   Clear
2:53 AM 37.0 °F - 34.0 °F 89% 30.38 in 10.0 mi Calm Calm - N/A   Clear
3:53 AM 41.0 °F 38.0 °F 35.1 °F 79% 30.38 in 10.0 mi North 4.6 mph - N/A   Clear
4:53 AM 39.0 °F 34.8 °F 34.0 °F 82% 30.40 in 10.0 mi North 5.8 mph - N/A   Clear
5:53 AM 39.0 °F - 35.1 °F 86% 30.40 in 10.0 mi Calm Calm - N/A   Scattered Clouds
6:53 AM 41.0 °F 37.1 °F 36.0 °F 82% 30.42 in 10.0 mi NNE 5.8 mph - N/A   Overcast
7:53 AM 43.0 °F 40.3 °F 35.1 °F 74% 30.44 in 10.0 mi NE 4.6 mph - N/A   Partly Cloudy
8:53 AM 46.9 °F - 32.0 °F 56% 30.46 in 10.0 mi ENE 9.2 mph - N/A   Clear
9:53 AM 52.0 °F - 30.0 °F 43% 30.46 in 10.0 mi ENE 11.5 mph - N/A   Clear
10:53 AM 55.0 °F - 27.0 °F 34% 30.47 in 10.0 mi ENE 9.2 mph - N/A   Clear
11:53 AM 59.0 °F - 28.0 °F 31% 30.46 in 10.0 mi ENE 12.7 mph - N/A   Clear
12:53 PM 62.6 °F - 28.4 °F 27% 30.44 in 10.0 mi ENE 6.9 mph - N/A   Clear
1:53 PM 64.0 °F - 28.9 °F 27% 30.42 in 10.0 mi ENE 10.4 mph - N/A   Clear
2:53 PM 66.9 °F - 30.0 °F 25% 30.40 in 10.0 mi NE 6.9 mph 18.4 mph N/A   Clear
3:53 PM 68.0 °F - 33.1 °F 27% 30.35 in 10.0 mi Variable 5.8 mph - N/A   Clear
4:53 PM 69.1 °F - 35.1 °F 29% 30.32 in 10.0 mi ENE 12.7 mph - N/A   Scattered Clouds
5:53 PM 68.0 °F - 37.0 °F 32% 30.35 in 10.0 mi East 6.9 mph - N/A   Scattered Clouds
6:53 PM 66.0 °F - 39.0 °F 37% 30.33 in 10.0 mi East 6.9 mph - N/A   Scattered Clouds
7:53 PM 60.1 °F - 42.1 °F 51% 30.33 in 10.0 mi ENE 6.9 mph - N/A   Partly Cloudy
8:53 PM 57.9 °F - 42.1 °F 56% 30.35 in 10.0 mi East 4.6 mph - N/A   Partly Cloudy
9:53 PM 55.9 °F - 45.0 °F 67% 30.37 in 10.0 mi Calm Calm - N/A   Mostly Cloudy
10:53 PM 55.9 °F - 39.9 °F 55% 30.36 in 10.0 mi Calm Calm - N/A   Clear
11:53 PM 52.0 °F - 43.0 °F 71% 30.34 in 10.0 mi Calm Calm - N/A   Clear